Mason City, IA

4:37 AM CDT on September 23, 2017 (GMT -0500)
Mason City Municipal

Weather History for KMCW - October, 2011

Change the Weather History Date:

Wednesday, October 12, 2011

  Actual Average Record
Temperature  
Mean Temperature 59 °F 50 °F  
Max Temperature 66 °F 62 °F 89 °F (1975)
Min Temperature 55 °F 38 °F 21 °F (1917)
Degree Days  
Heating Degree Days 6 15  
Month to date heating degree days 161  
Since 1 July heating degree days 374  
Cooling Degree Days 0 0  
Month to date cooling degree days 2  
Year to date cooling degree days 612  
Growing Degree Days 9 (Base 50)    
Moisture  
Dew Point 55 °F    
Average Humidity 92    
Maximum Humidity 100    
Minimum Humidity 77    
Precipitation  
Precipitation 0.46 in 0.08 in 2.05 in (1914)
Month to date precipitation 1.07  
Year to date precipitation 30.70  
Snow  
Snow 0.00 in 0.00 in 0.70 in (2006)
Month to date snowfall 0.0  
Since 1 July snowfall 0.0  
Since 1 September snowfall 0.0  
Snow Depth -    
Sea Level Pressure  
Sea Level Pressure 29.72 in    
Wind  
Wind Speed 7 mph (SSE)    
Max Wind Speed 13 mph    
Max Gust Speed -    
Visibility 6 miles    
Events Rain , Thunderstorm    
T = Trace of Precipitation, MM = Missing Value Source: NWS Daily Summary

Daily Weather History Graph

Daily Weather History Graph

Search for Another Location

Airport or City:

Trip Planner

Search our weather history database for the weather conditions in past years. The results will help you decide how hot, cold, wet, or windy it might be!

Date:

Astronomy

Oct. 12, 2011 Rise Set
Actual Time 7:23 AM CDT 6:35 PM CDT
Civil Twilight 6:54 AM CDT 7:04 PM CDT
Nautical Twilight 6:21 AM CDT 7:37 PM CDT
Astronomical Twilight 5:48 AM CDT 8:10 PM CDT
Moon 6:34 PM CDT (10/12) 8:01 AM CDT (10/12)
Length of Visible Light 12h 09m
Length of Day
11h 12m
Full, 100% of the Moon is Illuminated
Oct 12
Full
Oct 19
Last Quarter
Oct 26
New
Nov 2
First Quarter
Nov 10
Full

Hourly Weather History & Observations

Time (CDT) Temp. Dew Point Humidity Pressure Visibility Wind Dir Wind Speed Gust Speed Precip Events Conditions
12:53 AM 57.0 °F 51.1 °F 81% 29.80 in 10.0 mi SSE 6.9 mph - N/A   Clear
1:53 AM 55.9 °F 51.1 °F 84% 29.80 in 10.0 mi SSE 6.9 mph - N/A   Mostly Cloudy
2:53 AM 57.0 °F 53.1 °F 87% 29.79 in 10.0 mi SSE 5.8 mph - N/A   Overcast
3:53 AM 55.0 °F 53.1 °F 93% 29.77 in 8.0 mi SE 4.6 mph - N/A   Clear
4:53 AM 55.9 °F 54.0 °F 93% 29.76 in 8.0 mi SE 5.8 mph - N/A   Mostly Cloudy
5:53 AM 57.0 °F 55.0 °F 93% 29.77 in 7.0 mi SE 5.8 mph - N/A   Partly Cloudy
6:53 AM 55.0 °F 54.0 °F 96% 29.76 in 5.0 mi SE 8.1 mph - N/A   Clear
7:53 AM 55.9 °F 55.0 °F 97% 29.74 in 4.0 mi ESE 5.8 mph - N/A   Partly Cloudy
8:53 AM 57.0 °F 55.0 °F 93% 29.77 in 4.0 mi South 10.4 mph - N/A   Partly Cloudy
9:00 AM 57.2 °F 55.4 °F 94% 29.78 in 4.0 mi South 6.9 mph - N/A Thunderstorm Mostly Cloudy
9:08 AM 57.2 °F 55.4 °F 94% 29.78 in 2.5 mi South 5.8 mph - 0.03 in Rain , Thunderstorm Light Thunderstorms and Rain
9:16 AM 57.2 °F 55.4 °F 94% 29.78 in 1.5 mi South 8.1 mph - 0.07 in Rain , Thunderstorm Light Thunderstorms and Rain
9:41 AM 55.4 °F 55.4 °F 100% 29.76 in 1.8 mi Variable 4.6 mph - 0.14 in Rain , Thunderstorm Rain
9:53 AM 55.9 °F 55.0 °F 97% 29.73 in 3.0 mi West 5.8 mph - 0.15 in Rain Light Rain
10:03 AM 57.2 °F 55.4 °F 94% 29.76 in 2.5 mi East 5.8 mph - N/A Rain Light Rain
10:10 AM 57.2 °F 55.4 °F 94% 29.76 in 4.0 mi ESE 6.9 mph - 0.01 in Rain Light Rain
10:53 AM 59.0 °F 57.0 °F 93% 29.75 in 5.0 mi SE 6.9 mph - 0.01 in   Mostly Cloudy
11:41 AM 59.0 °F 57.2 °F 94% 29.77 in 4.0 mi SSE 9.2 mph - 0.01 in Rain Light Rain
11:53 AM 59.0 °F 57.0 °F 93% 29.75 in 4.0 mi SSE 10.4 mph - 0.02 in   Overcast
12:49 PM 59.0 °F 57.2 °F 94% 29.75 in 7.0 mi SE 11.5 mph - 0.00 in   Overcast
12:53 PM 59.0 °F 57.2 °F 94% 29.75 in 7.0 mi SE 10.4 mph - N/A   Overcast
1:53 PM 61.0 °F 57.9 °F 90% 29.69 in 10.0 mi ESE 10.4 mph - 0.00 in   Partly Cloudy
2:32 PM 62.6 °F 57.2 °F 82% 29.69 in 10.0 mi SE 12.7 mph - N/A   Mostly Cloudy
2:42 PM 62.6 °F 57.2 °F 82% 29.69 in 10.0 mi SE 11.5 mph - N/A   Mostly Cloudy
2:53 PM 62.1 °F 55.9 °F 80% 29.67 in 10.0 mi SE 11.5 mph - N/A   Overcast
3:53 PM 63.0 °F 55.9 °F 78% 29.65 in 10.0 mi Variable 5.8 mph - N/A   Mostly Cloudy
4:50 PM 62.6 °F 55.4 °F 77% 29.67 in 10.0 mi SE 4.6 mph - N/A   Overcast
4:53 PM 63.0 °F 57.0 °F 81% 29.65 in 10.0 mi SSE 5.8 mph - N/A   Overcast
5:28 PM 57.2 °F 55.4 °F 94% 29.67 in 2.0 mi WSW 8.1 mph - 0.04 in Rain Rain
5:36 PM 57.2 °F 55.4 °F 94% 29.67 in 3.0 mi West 8.1 mph - 0.05 in Rain Rain
5:46 PM 57.2 °F 55.4 °F 94% 29.67 in 2.5 mi West 8.1 mph - 0.07 in Rain Rain
5:53 PM 57.0 °F 55.0 °F 93% 29.65 in 3.0 mi WSW 6.9 mph - 0.09 in Rain Rain
6:53 PM 55.9 °F 55.0 °F 97% 29.66 in 5.0 mi WNW 3.5 mph - 0.12 in Rain Light Rain
7:53 PM 55.9 °F 55.0 °F 97% 29.67 in 6.0 mi NW 5.8 mph - 0.05 in Rain Light Rain
8:04 PM 55.4 °F 55.4 °F 100% 29.68 in 6.0 mi NW 5.8 mph - 0.00 in Rain Light Rain
8:12 PM 55.4 °F 55.4 °F 100% 29.68 in 6.0 mi NNW 6.9 mph - 0.00 in Rain Light Rain
8:38 PM 57.2 °F 55.4 °F 94% 29.68 in 9.0 mi North 10.4 mph - 0.01 in Rain Light Rain
8:53 PM 57.2 °F 55.4 °F 94% 29.68 in 9.0 mi North 10.4 mph - N/A Rain Light Rain
9:04 PM 57.2 °F 57.2 °F 100% 29.68 in 9.0 mi North 11.5 mph - 0.00 in Rain Light Rain
9:53 PM 57.2 °F 55.4 °F 94% 29.68 in 10.0 mi North 8.1 mph - N/A Rain Light Rain
10:10 PM 55.4 °F 55.4 °F 100% 29.68 in 10.0 mi NW 11.5 mph - 0.01 in Rain Light Rain
10:53 PM 55.9 °F 55.0 °F 97% 29.67 in 9.0 mi NNW 9.2 mph - 0.02 in Rain Light Rain
11:53 PM 57.2 °F 55.4 °F 94% 29.69 in 6.0 mi NW 12.7 mph - N/A Rain Light Rain